Weather History for KBFL - November, 2012

Change the Weather History Date:

Thursday, November 29, 2012

  Actual Average Record
Temperature  
Mean Temperature 63 °F 51 °F  
Max Temperature 73 °F 60 °F 80 °F (1924)
Min Temperature 52 °F 41 °F 28 °F (1919)
Degree Days  
Heating Degree Days 2    
Month to date heating degree days 203  
Since 1 July heating degree days 239  
Cooling Degree Days 0    
Month to date cooling degree days 9  
Year to date cooling degree days 2579  
Growing Degree Days 13 (Base 50)    
Moisture  
Dew Point 51 °F    
Average Humidity 69    
Maximum Humidity 93    
Minimum Humidity 44    
Precipitation  
Precipitation T in 0.03 in 0.61 in (1913)
Month to date precipitation 0.08 0.62  
Year to date precipitation 3.74 5.43  
Since 1 July precipitation 0.12 1.04  
Snow  
Snow 0.00 in - - ()
Month to date snowfall 0.0  
Since 1 July snowfall 0.0  
Since 1 September snowfall 0.0  
Snow Depth 0.00 in    
Sea Level Pressure  
Sea Level Pressure 30.11 in    
Wind  
Wind Speed 4 mph (ESE)    
Max Wind Speed 10 mph    
Max Gust Speed 13 mph    
Visibility 7 miles    
Events      
T = Trace of Precipitation, MM = Missing Value Source: NWS Daily Summary

Daily Weather History Graph

Daily Weather History Graph

Search for Another Location

Airport or City:

Trip Planner

Search our weather history database for the weather conditions in past years. The results will help you decide how hot, cold, wet, or windy it might be!

Date:

Astronomy

Nov. 29, 2012 Rise Set
Actual Time 6:45 AM PST 4:43 PM PST
Civil Twilight 6:17 AM PST 5:11 PM PST
Nautical Twilight 5:46 AM PST 5:42 PM PST
Astronomical Twilight 5:15 AM PST 6:13 PM PST
Moon 5:50 PM PST (11/29) 7:35 AM PST (11/29)
Length of Visible Light 10h 53m
Length of Day
9h 58m
Full, 99% of the Moon is Illuminated
Nov 29
Full
Dec 6
Last Quarter
Dec 13
New
Dec 19
First Quarter
Dec 28
Full

Hourly Weather History & Observations

Time (PST) Temp. Dew Point Humidity Pressure Visibility Wind Dir Wind Speed Gust Speed Precip Events Conditions
12:54 AM 54.0 °F 50.0 °F 86% 30.09 in 6.0 mi SE 4.6 mph - N/A   Overcast
1:54 AM 54.0 °F 51.1 °F 90% 30.09 in 6.0 mi Calm Calm - N/A   Overcast
2:54 AM 54.0 °F 51.1 °F 90% 30.10 in 5.0 mi Calm Calm - N/A   Overcast
3:54 AM 54.0 °F 51.1 °F 90% 30.10 in 4.0 mi WNW 4.6 mph - N/A   Overcast
4:54 AM 55.0 °F 52.0 °F 89% 30.11 in 5.0 mi Calm Calm - 0.00 in   Overcast
5:54 AM 55.0 °F 51.1 °F 86% 30.13 in 4.0 mi SE 6.9 mph - N/A   Overcast
6:54 AM 55.0 °F 52.0 °F 89% 30.15 in 4.0 mi South 4.6 mph - N/A   Overcast
7:13 AM 53.6 °F 50.0 °F 88% 30.16 in 2.0 mi SE 6.9 mph - N/A   Overcast
7:54 AM 53.6 °F 50.0 °F 88% 30.16 in 2.0 mi SSE 5.8 mph - N/A   Scattered Clouds
8:54 AM 55.0 °F 52.0 °F 89% 30.17 in 2.5 mi ESE 5.8 mph - 0.00 in   Overcast
9:16 AM 55.4 °F 51.8 °F 88% 30.17 in 3.0 mi SSE 4.6 mph - N/A   Haze
9:54 AM 57.9 °F 51.1 °F 78% 30.18 in 3.0 mi SSE 3.5 mph - N/A   Haze
10:54 AM 61.0 °F 52.0 °F 72% 30.14 in 4.0 mi Calm Calm - N/A   Haze
11:54 AM 63.0 °F 52.0 °F 67% 30.13 in 6.0 mi Calm Calm - N/A   Haze
12:54 PM 66.9 °F 53.1 °F 61% 30.10 in 6.0 mi Calm Calm - N/A   Haze
1:54 PM 71.1 °F 51.1 °F 49% 30.08 in 10.0 mi North 6.9 mph - N/A   Scattered Clouds
2:54 PM 72.0 °F 48.9 °F 44% 30.06 in 10.0 mi Variable 4.6 mph - N/A   Mostly Cloudy
3:54 PM 69.1 °F 51.1 °F 53% 30.06 in 10.0 mi NW 5.8 mph - N/A   Partly Cloudy
4:54 PM 64.9 °F 51.1 °F 61% 30.07 in 10.0 mi WNW 5.8 mph - N/A   Partly Cloudy
5:54 PM 63.0 °F 52.0 °F 67% 30.09 in 10.0 mi NW 3.5 mph - N/A   Clear
6:54 PM 62.1 °F 54.0 °F 75% 30.10 in 10.0 mi North 4.6 mph - N/A   Partly Cloudy
7:54 PM 59.0 °F 52.0 °F 78% 30.09 in 9.0 mi NE 8.1 mph - N/A   Clear
8:54 PM 60.1 °F 51.1 °F 72% 30.09 in 10.0 mi SSE 10.4 mph - N/A   Mostly Cloudy
9:54 PM 59.0 °F 52.0 °F 78% 30.09 in 10.0 mi East 4.6 mph - N/A   Clear
10:54 PM 55.9 °F 50.0 °F 80% 30.08 in 10.0 mi Calm Calm - N/A   Clear
11:54 PM 57.9 °F 50.0 °F 75% 30.06 in 10.0 mi East 4.6 mph - N/A   Clear